Wind_Speed
23 18 21 29 26 24 22 12 19 14 13 4 17 23 17 14 9 8 9 11 11 13 14 20 29 38 40 40 42 44 43 46 44 40 36 34 34 31 28 25 23 22 20 18
21 26 27 28 22 21 19 22 21 7 8 13 18 22 7 11 16 17 14 11 11 8 8 9 23 30 38 42 42 43 45 48 46 44 40 31 36 31 29 26 23 22 20 18
23 28 27 23 21 21 22 22 22 15 3 13 3 18 12 6 7 8 12 17 10 10 11 9 11 25 28 34 42 43 43 46 46 43 40 27 31 25 26 27 26 24 21 18
17 21 18 24 28 23 23 21 23 14 7 15 8 16 15 14 16 17 18 10 10 10 9 11 17 17 28 35 38 41 42 43 45 44 41 38 33 22 25 32 28 24 21 18
8 5 27 19 26 27 20 20 18 14 16 14 10 8 12 8 16 20 19 14 17 18 17 18 18 29 40 34 41 42 42 41 43 44 42 40 34 32 26 29 26 24 21 18
24 18 4 9 13 18 19 6 16 16 12 16 23 16 21 13 19 12 19 17 19 20 20 18 23 26 24 30 36 41 41 39 41 43 42 41 38 32 26 29 28 25 22 20
16 23 21 12 9 10 14 13 9 11 13 14 13 13 21 10 18 20 20 21 18 19 19 17 15 15 21 26 30 33 34 33 39 41 40 39 35 33 29 31 30 27 24 23
6 8 14 16 22 14 11 16 9 12 4 6 5 9 12 15 22 17 12 13 7 9 10 14 16 16 21 27 31 30 31 32 38 39 36 32 30 30 28 29 28 27 24 21
4 7 1 8 9 13 7 13 11 3 3 3 4 5 8 6 10 13 15 8 17 17 9 8 10 13 21 25 28 32 33 32 37 37 33 30 28 25 26 24 23 22 20 18
2 9 3 1 6 4 8 5 2 3 12 13 5 3 5 9 10 12 12 10 9 6 5 7 8 10 17 23 26 30 32 35 36 32 30 28 25 23 22 21 20 19 18 18
4 6 4 8 7 13 6 7 3 3 5 3 2 6 9 15 5 7 9 8 7 5 6 6 7 9 16 22 25 28 31 33 33 30 27 25 23 21 20 20 19 19 18 18
6 5 3 2 3 1 4 8 11 5 5 3 4 6 1 0 3 3 11 8 2 4 6 8 9 9 14 17 22 26 27 29 27 25 24 23 21 20 20 20 19 19 18 18
4 2 4 4 2 3 3 4 5 3 3 7 4 6 5 4 5 5 5 3 3 4 6 7 9 8 8 15 19 24 21 24 24 23 22 21 20 20 20 19 18 18 18 18
7 4 2 3 4 1 3 2 2 10 5 5 7 12 6 5 4 7 4 3 5 5 5 6 7 8 10 16 18 19 19 17 18 18 18 18 18 19 18 17 17 16 16 16
4 5 2 5 6 3 3 3 3 7 9 6 5 4 5 4 4 6 4 2 5 6 8 5 6 7 9 14 18 15 15 15 13 13 14 14 14 15 15 15 15 15 15 15
5 4 3 4 2 1 1 5 5 4 4 6 6 9 7 3 1 3 7 6 8 8 6 7 7 7 8 14 14 20 15 13 13 12 12 12 12 12 12 12 13 14 15 14
4 2 4 4 4 3 4 5 4 3 7 4 5 6 11 7 5 2 4 4 6 8 9 9 9 7 9 16 22 18 17 13 12 11 11 10 9 10 10 11 12 13 15 15
7 2 1 3 3 3 4 2 2 5 3 5 4 8 9 9 9 6 5 3 5 5 5 6 8 9 13 15 19 18 18 14 12 11 11 10 9 8 7 8 9 10 11 12
14 4 3 1 1 3 3 5 3 3 3 6 8 11 7 9 7 4 9 8 6 5 3 5 14 16 17 17 17 18 17 15 13 13 12 10 9 8 8 8 8 8 9 10
2 4 2 1 2 2 1 5 4 2 2 5 2 10 9 12 4 3 10 8 8 6 8 10 15 19 19 17 17 15 14 15 13 11 9 8 7 7 7 6 5 7 9 8
3 2 3 3 3 2 3 10 2 2 4 10 6 5 6 4 2 6 8 7 6 7 10 17 16 15 14 15 14 12 11 8 8 7 6 6 6 6 6 6 8 8 7 7
4 3 2 2 3 2 14 1 4 3 4 4 5 4 4 5 5 4 5 4 6 7 10 11 13 13 13 10 10 9 9 10 9 8 8 9 9 9 8 8 7 7 6 5
3 3 2 4 3 3 3 6 4 2 2 4 5 5 4 5 3 3 1 3 5 4 7 8 10 12 10 10 11 11 9 9 9 9 11 10 9 8 7 7 7 6 6 6
6 6 3 2 3 2 4 1 5 4 5 7 7 5 5 5 3 1 1 2 3 3 4 8 9 8 6 6 8 9 11 10 9 9 8 8 8 7 6 6 6 6 6 5
3 6 6 2 2 1 4 8 8 8 5 8 8 5 6 6 3 1 1 2 3 4 3 5 6 7 7 7 7 8 8 8 7 6 6 6 6 6 5 5 5 5 5 7
4 3 2 2 3 3 6 10 11 10 9 9 8 9 8 7 6 3 2 1 3 4 4 4 5 6 7 7 7 7 7 6 6 5 6 8 8 6 6 5 5 6 6 6
Wind_Direction
221 225 223 220 212 224 229 228 242 242 238 230 231 250 236 235 249 233 241 233 226 223 225 211 209 209 205 201 197 196 193 198 195 192 188 190 193 197 199 204 202 201 203 205
216 219 221 226 220 224 223 231 246 269 227 228 249 256 211 216 236 229 228 235 231 224 202 195 193 197 196 194 194 192 194 195 196 193 192 191 195 196 201 200 204 205 205 208
251 226 220 212 214 214 222 222 231 223 190 247 283 270 240 229 249 255 241 242 234 217 215 194 190 194 191 187 191 192 191 194 194 194 193 190 190 193 194 197 202 203 208 211
243 250 227 216 216 209 224 216 229 226 219 242 160 261 248 239 237 243 237 222 224 211 212 204 196 192 198 199 193 192 193 194 195 197 192 190 181 182 200 197 199 202 210 213
238 213 200 208 213 205 227 220 226 225 230 242 223 248 249 208 235 237 239 223 221 223 206 210 204 204 204 193 189 190 192 195 195 196 197 192 189 196 200 202 200 205 207 210
252 253 280 237 245 205 221 154 218 226 224 228 225 216 256 223 228 239 249 241 228 228 227 217 214 208 197 190 187 190 190 190 196 196 198 199 200 195 191 195 197 200 205 207
251 249 244 222 255 243 212 182 214 217 220 238 212 202 237 203 231 231 237 245 238 234 232 226 201 190 180 177 179 180 182 182 195 197 199 202 206 200 194 193 198 197 198 205
210 298 170 193 209 209 210 196 197 218 205 230 150 218 240 224 245 251 245 249 258 247 233 213 201 189 180 172 171 174 177 178 191 194 196 199 196 195 200 198 195 197 207 218
296 252 209 175 175 176 184 207 220 82 349 118 183 275 305 215 235 252 247 249 248 240 227 201 177 177 171 166 168 168 171 175 183 187 187 187 191 191 191 193 198 204 210 216
329 301 229 173 108 257 219 160 233 242 223 232 235 245 224 268 225 250 277 252 258 252 170 142 142 149 156 153 154 164 169 168 174 176 178 181 181 187 192 196 199 204 208 210
336 244 316 159 186 175 180 207 200 168 158 182 201 244 206 236 233 257 272 293 256 161 134 125 119 115 128 137 147 153 163 167 170 175 179 183 184 190 197 201 203 204 207 211
210 271 298 287 288 34 200 200 183 186 218 215 170 267 301 319 229 251 282 284 178 118 114 114 109 108 108 117 137 150 162 166 171 174 176 180 186 190 195 197 199 202 210 217
333 328 301 307 324 31 230 208 200 86 82 202 155 264 345 341 311 265 278 10 78 112 99 108 103 102 104 111 130 146 156 163 165 171 177 177 184 191 197 201 205 211 216 221
278 233 306 308 295 193 302 304 242 215 233 210 220 268 277 309 308 313 307 157 137 109 123 106 108 108 105 115 130 140 145 162 164 173 179 184 189 197 203 207 211 216 217 218
44 316 246 282 256 242 229 249 268 246 256 248 250 222 277 291 310 288 272 138 119 146 136 124 138 134 125 121 128 138 142 153 166 174 184 193 199 204 206 209 211 213 216 219
339 290 339 287 42 157 247 347 314 300 318 270 243 275 338 352 280 194 225 174 174 171 150 132 132 137 141 135 140 146 148 155 163 175 177 182 187 193 200 204 208 213 214 217
260 257 340 280 333 348 41 330 340 23 30 322 16 346 329 332 291 273 247 226 224 200 163 163 163 158 157 153 155 154 158 165 168 174 176 178 183 189 196 201 207 218 222 224
264 4 285 278 346 33 234 126 322 80 51 15 319 315 314 306 313 15 5 269 233 205 173 158 146 144 145 157 155 156 154 164 169 169 171 174 178 185 192 200 205 211 216 222
218 220 286 103 220 124 36 4 6 356 343 11 342 337 324 313 302 55 6 349 303 195 167 151 138 135 149 153 157 155 155 160 164 170 175 173 182 186 198 208 209 218 221 222
183 207 248 355 96 45 255 315 199 228 354 358 339 345 338 333 17 358 345 347 7 36 108 117 121 133 144 148 154 149 152 159 167 170 169 171 184 192 200 204 207 217 219 223
344 24 216 253 92 357 304 315 176 32 307 328 342 326 340 2 306 316 338 354 27 55 83 106 107 110 137 152 155 148 151 146 161 162 167 179 186 194 197 198 209 217 218 218
21 329 13 15 72 18 342 2 56 310 311 286 319 297 304 295 321 333 345 13 33 55 73 94 112 123 141 149 146 141 151 166 167 168 182 191 193 186 192 196 207 204 200 202
42 4 352 29 60 69 32 72 347 310 285 312 305 313 263 296 305 312 15 38 72 67 86 111 117 124 134 152 169 162 169 175 173 179 189 189 185 187 191 189 193 187 187 195
359 13 29 128 40 101 59 135 23 350 355 332 326 306 323 323 306 333 161 112 95 106 124 137 139 137 138 148 163 181 175 184 183 181 178 188 188 182 186 198 206 205 203 207
340 335 334 51 43 358 121 46 10 352 353 350 340 330 346 335 316 232 177 153 150 147 142 165 161 152 163 167 167 172 179 182 183 186 184 189 195 197 198 210 219 229 235 236
354 357 4 294 54 306 304 359 7 354 354 348 347 346 352 6 349 359 43 109 172 155 138 154 167 171 183 194 194 194 194 195 191 191 199 201 201 217 219 230 233 243 259 260
Height
724 731 724 714 717 712 715 725 722 712 711 714 707 698 702 703 706 710 709 708 707 701 698 703 707 712 716 720 725 729 735 741 748 755 760 765 766 770 774 779 780 783 786 789
717 710 703 702 712 717 718 720 718 715 713 713 702 694 701 699 692 693 701 701 702 699 698 698 701 705 707 710 716 722 726 732 739 745 751 759 762 768 771 774 778 779 782 785
707 690 692 701 703 712 712 714 713 714 709 708 709 697 698 697 693 691 689 686 690 694 696 696 698 699 703 705 708 713 719 725 732 739 747 754 763 767 769 769 772 775 778 781
703 690 694 696 696 701 705 700 703 715 716 714 705 696 683 681 687 684 678 685 685 686 686 688 690 694 695 698 703 708 715 721 728 734 740 744 749 756 760 763 768 772 776 778
686 683 683 692 683 684 693 693 702 710 710 713 712 708 679 680 681 674 666 672 671 669 671 675 679 678 678 688 693 701 710 717 722 728 734 739 744 749 755 762 766 770 773 775
686 677 688 679 682 682 680 696 699 702 707 700 690 703 663 676 665 665 661 659 659 658 657 661 663 671 677 682 689 696 701 709 716 723 729 734 739 745 750 756 761 765 770 772
685 683 682 681 691 688 685 693 691 692 691 674 677 690 658 657 652 655 653 648 649 649 651 654 660 665 671 677 683 691 698 704 711 718 725 730 736 742 745 750 755 760 765 767
679 690 670 665 666 677 676 673 667 693 709 686 681 680 659 651 649 652 656 655 653 649 646 647 651 658 664 671 677 686 695 701 707 714 722 729 735 740 744 747 750 755 760 763
681 670 649 652 654 658 671 665 668 711 740 691 685 670 658 653 655 652 650 653 643 641 645 646 650 654 661 667 673 680 689 698 705 711 719 727 732 737 742 747 749 752 756 761
687 681 648 660 659 670 663 661 674 670 661 665 684 689 673 651 662 650 652 651 649 645 648 649 653 657 662 667 674 682 689 694 701 713 719 725 729 736 740 744 746 750 752 757
689 674 665 654 654 654 662 665 673 676 680 703 729 700 664 643 653 665 657 655 650 650 653 655 657 662 665 669 677 683 691 698 704 710 717 724 728 733 738 741 744 747 749 753
688 680 674 653 662 663 655 659 654 664 683 691 703 663 673 678 683 678 669 657 654 656 657 659 662 666 670 675 681 685 694 699 706 712 716 721 727 731 736 739 741 743 746 750
683 682 676 656 657 660 653 656 653 668 671 686 682 660 680 682 677 666 663 661 664 665 665 665 666 672 676 681 686 689 699 703 707 713 718 720 725 729 734 737 737 740 743 747
678 675 670 666 664 667 663 655 655 649 649 660 662 640 654 675 683 666 659 660 664 668 669 672 673 676 681 685 690 696 700 709 710 715 718 722 724 729 732 733 735 738 740 742
684 673 679 672 672 670 667 661 655 650 649 644 671 680 676 669 667 680 680 666 669 671 671 675 679 679 681 687 692 700 704 707 713 716 719 721 724 727 730 731 732 735 737 740
689 684 692 686 686 675 664 674 675 667 663 659 666 654 668 661 666 668 673 670 668 670 674 674 681 686 686 687 695 697 703 708 713 717 719 721 723 725 727 729 731 734 735 736
695 695 697 683 687 682 684 708 692 678 686 684 667 680 679 669 663 665 666 672 672 671 671 675 679 683 688 689 692 697 702 709 713 717 719 720 722 723 725 727 729 731 732 733
689 700 696 677 696 690 698 707 699 688 693 694 691 689 688 681 670 669 670 668 672 675 674 674 677 684 688 694 694 700 703 709 713 716 717 719 721 722 724 726 727 728 729 730
688 683 686 701 704 682 690 702 701 697 690 697 695 690 690 683 671 674 679 676 669 671 671 674 676 681 689 693 699 701 705 708 713 716 718 719 720 721 724 725 724 726 726 727
680 682 683 685 675 682 700 699 704 702 693 702 706 696 696 680 668 676 684 682 676 672 673 677 680 684 691 696 700 705 707 708 712 713 714 715 718 720 722 723 723 726 726 725
685 683 677 683 680 706 706 700 697 688 708 705 707 705 699 694 696 694 690 687 683 680 680 682 685 689 696 702 703 706 707 708 710 710 712 714 717 719 720 723 726 726 725 724
695 695 692 688 695 705 706 697 698 711 710 712 707 708 705 700 696 698 696 692 689 688 688 690 691 695 699 702 703 705 708 710 711 712 714 716 718 719 720 722 723 724 723 723
704 706 702 701 701 712 715 717 718 716 715 712 707 704 703 699 698 697 697 696 693 694 694 696 697 698 700 702 704 706 708 710 710 713 716 717 717 718 718 719 721 720 719 721
708 709 702 704 712 714 718 718 719 718 716 713 709 705 701 699 698 698 698 697 697 698 700 699 701 702 704 705 707 709 711 713 713 713 711 714 716 716 717 718 719 719 718 717
722 718 719 707 711 713 717 720 722 718 716 713 710 706 703 701 698 698 698 699 699 700 700 700 701 702 705 707 708 709 709 711 711 711 712 714 715 715 715 715 715 715 715 716
730 731 730 723 729 729 720 722 723 719 717 715 712 708 705 703 700 698 699 699 702 702 701 704 705 704 706 708 708 709 709 710 710 710 711 713 714 714 714 714 713 713 713 714